STARLINK-4392, 53489

Orbit data source: Space-Track

STARLINK-4392, 53489 is a payload satellite owned by SpaceX/Seattle (US) in SSO that was launched on Fri, 12 Aug 2022 UTC via an FALCON 9 launch vehicle from the Air Force Western Test Range (AFWTR). Payload-class satellites include a variety of spacecraft equipped with specific instruments for various scientific and technological missions. These include communications satellites like Starlink; space stations such as the ISS; scientific satellites like the Hubble; Earth observation satellites from companies like Planet Labs, Umbra, and HawkEye 360; GPS; miniature CubeSats for education and research; and military/defense satellites.

Loading next visibility...
Identifier
53489, 2022-099AA
Orbit
SSO
Country
Flag of USUS
Related business
Manufacturer
SpaceX/Seattle
Mission
Operational Commercial Communications
Bus & Motor
STARLINK, Unknown motor
Mass
300 kg wet, ~275 kg dry
Launch date (UTC)
2022-08-12 (3 years ago)
Launch vehicle
FALCON 9
Launch site
Air Force Western Test Range (AFWTR)
Object type
Payload
Rocket body
Debris
Shape & HBR
Box + 1 Pan, 4.4 m
Radar Cross Section
13.562 m², Large (>1 m²)

Expand to show TLE details & history
Last TLE update: 9 hours ago

TLE from 9 hours ago
0 STARLINK-4392
1 53489U 22099AA  25259.26904670 -.00001946  00000-0 -14696-3 0  9999
2 53489  97.6038  19.4389 0005462  46.2720 313.8956 15.01260339169816
Epoch: 2025-09-16T06:27Z
TLE epoch observation values (Epoch: 2025-09-16T06:27:25.634Z)
Latitude
-0.00004°
Longitude
-72.87968°
Altitude
563.44 km
Speed
7.581 km/s
True Right ascension
01h 17m 45s
True Declination
0° 00' 00"
Sunlit
Object was in full shadow at epoch
Visualization orbit readout
Latitude
Unknown
Longitude
Unknown
Altitude
Unknown
Speed
Unknown
Apparent Right ascension
Unknown
Apparent Declination
Unknown
Sunlit
N/A
Visualization observer readout
Local Sidereal Time
08:13:14
Azimuth
Unknown
Elevation
Unknown
Doppler factor
Unknown
Orbital elements
Apogee altitude
563.798 km
Perigee altitude
556.219 km
Semi-major axis
6,938.145 km
Eccentricity
0.00055
Inclination
97.6038°
RAAN
19.4389°
Arg. of periapsis
46.272°
True anomaly
313.85048°
Mean anomaly
313.8956°
Eccentric anomaly
313.87304°
Mean motion
3.75559 °/min
Orbital period
95.86 mins
BSTAR
-0.00014696
Loading maneuver chart data...
Computing Atmospheric mass density...
Loading historical data...
Loading historical data...
Loading historical data...
Loading historical data...
Loading historical data...
Loading historical data...
Loading historical data...

Documentation

Showing up to 5 results
|